logo tempoitalia

Diretta Meteo Palermo-Punta Raisi, Italiavenerdì 23 luglio ore 20:20

Mappa
Sereno 27 °C Sereno 24 Ore: T.min 23 T.max 28
Ponente Nord-Est Km/h 24 Punto di rugiada: 21 °C Umidità: 69% Visibilità: 10 Km
Il sole sorge alle: 06:01 Il sole tramonta alle: 20:26
23 Luglio 2021 20:20 tempo osservato: Sereno Sereno 27 69 1014 vento: Nord NE 24
23 Luglio 2021 19:50 tempo osservato: Sereno Sereno 27 74 1014 vento: Nord NE 25.9
23 Luglio 2021 19:20 tempo osservato: Sereno Sereno 27 78 1014 vento: Nord NE 24
23 Luglio 2021 18:50 tempo osservato: Sereno Sereno 27 74 1014 vento: Nord NE 24
23 Luglio 2021 18:20 tempo osservato: Sereno Sereno 28 65 1014 vento: Nord NE 24
23 Luglio 2021 17:50 tempo osservato: Sereno Sereno 28 65 1014 vento: Nord NE 20.3
23 Luglio 2021 17:20 tempo osservato: Sereno Sereno 28 69 1015 vento: Nord N/NE 18.5
23 Luglio 2021 16:50 tempo osservato: Sereno Sereno 28 69 1015 vento: Nord N/NE 16.7
23 Luglio 2021 16:20 tempo osservato: Sereno Sereno 28 69 1015 vento: Nord N/NE 16.7
23 Luglio 2021 15:50 tempo osservato: Sereno Sereno 28 69 1015 vento: Nord N/NE 14.8
23 Luglio 2021 15:20 tempo osservato: Sereno Sereno 28 69 1015 vento: Nord N/NE 14.8
23 Luglio 2021 14:20 tempo osservato: Sereno Sereno 28 69 1015 vento: Nord N/NE 13
23 Luglio 2021 13:50 tempo osservato: Sereno Sereno 28 69 1015 vento: Nord N 13
23 Luglio 2021 13:20 tempo osservato: Sereno Sereno 27 74 1015 vento: Nord N 13
23 Luglio 2021 12:50 tempo osservato: Sereno Sereno 27 74 1016 vento: Nord N 11.1
23 Luglio 2021 12:20 tempo osservato: Sereno Sereno 28 74 1016 vento: Nord N 9.3
23 Luglio 2021 11:50 tempo osservato: Sereno Sereno 27 78 1016 vento: Nord N/NO 11.1
23 Luglio 2021 11:20 tempo osservato: Sereno Sereno 27 78 1016 vento: Nord N/NO 9.3
23 Luglio 2021 10:20 tempo osservato: Sereno Sereno 26 78 1016 vento: Nord O/NO 9.3
23 Luglio 2021 09:50 tempo osservato: Sereno Sereno 26 78 1016 vento: Nord N 5.5
23 Luglio 2021 09:20 tempo osservato: Sereno Sereno 25 78 1016 vento: Nord N 5.5
23 Luglio 2021 08:50 tempo osservato: Sereno Sereno 26 73 1016 vento: Nord N 5.5
23 Luglio 2021 08:20 tempo osservato: Sereno Sereno 25 73 1016 vento: Nord SO 7.4
23 Luglio 2021 07:50 tempo osservato: Sereno Sereno 25 73 1016 vento: Nord N 5.5
23 Luglio 2021 07:20 tempo osservato: Sereno Sereno 24 78 1015 vento: Nord N 3.7
23 Luglio 2021 06:50 tempo osservato: Sereno Sereno 23 78 1015 vento: Nord N 3.7
23 Luglio 2021 06:20 tempo osservato: Sereno Sereno 23 78 1015 vento: Nord N 1.8
23 Luglio 2021 05:50 tempo osservato: Sereno Sereno 23 78 1015 vento: Nord N 3.7
23 Luglio 2021 05:20 tempo osservato: Sereno Sereno 23 73 1015 vento: Nord N 1.8
23 Luglio 2021 04:50 tempo osservato: Sereno Sereno 23 78 1015 vento: Nord N 5.5
23 Luglio 2021 04:20 tempo osservato: Sereno Sereno 23 78 1015 vento: Nord N 5.5
23 Luglio 2021 03:50 tempo osservato: Sereno Sereno 23 78 1015 vento: Nord S/SE 9.3
23 Luglio 2021 03:20 tempo osservato: Sereno Sereno 23 73 1016 vento: Nord N 5.5
23 Luglio 2021 02:50 tempo osservato: Sereno Sereno 25 78 1016 vento: Nord NE 7.4
23 Luglio 2021 02:20 tempo osservato: Sereno Sereno 25 78 1016 vento: Nord E/NE 9.3
23 Luglio 2021 01:50 tempo osservato: Sereno Sereno 25 73 1016 vento: Nord E/NE 7.4
23 Luglio 2021 01:20 tempo osservato: Sereno Sereno 25 83 1016 vento: Nord N 5.5
23 Luglio 2021 00:50 tempo osservato: Sereno Sereno 25 83 1016 vento: Nord N 3.7
23 Luglio 2021 00:20 tempo osservato: Sereno Sereno 25 83 1016 vento: Nord N 1.8
22 Luglio 2021 23:50 tempo osservato: Sereno Sereno 25 83 1016 vento: Nord N 5.5
22 Luglio 2021 23:20 tempo osservato: Sereno Sereno 25 83 1016 vento: Nord S/SO 7.4
22 Luglio 2021 22:50 tempo osservato: Sereno Sereno 25 78 1016 vento: Nord S/SO 7.4
22 Luglio 2021 22:20 tempo osservato: Sereno Sereno 26 78 1016 vento: Nord N 5.5
22 Luglio 2021 21:50 tempo osservato: Sereno Sereno 26 78 1016 vento: Nord N 3.7
22 Luglio 2021 21:20 tempo osservato: Sereno Sereno 27 74 1016 vento: Nord N 5.5
22 Luglio 2021 20:50 tempo osservato: Sereno Sereno 27 74 1016 vento: Nord N 1.8